Simultaneous Nadir Overpasses (SNOs) Predictions

Prediction of SNOs between NOAA-19 and NPP Satellite Orbit:

Table of predicted SNOs for the next 14.0 days since TLE Epoch: 11/14/2015
Index Date (NOAA-19) Time (NOAA-19) Lat,Lon (NOAA-19) SZA (NOAA-19 ) Date (NPP) Time (NPP) Lat,Lon (NPP) SZA (NPP ) Distance(km) Time Diff (sec)
1 11/19/2015 14:52:57 -81.04, 83.24 76.47 11/19/2015 14:54:13 -81.05, 83.20 76.49 1.84 76
2 11/19/2015 15:43:57 81.03,-109.02 103.49 11/19/2015 15:44:56 81.03,-108.87 103.43 2.79 59
3 11/19/2015 16:34:58 -81.03, 58.26 76.52 11/19/2015 16:35:42 -81.04, 58.15 76.52 2.02 44
4 11/19/2015 17:25:59 81.03,-134.39 103.48 11/19/2015 17:26:26 81.03,-134.29 103.46 1.82 27
5 11/19/2015 18:17:00 -81.03, 32.90 76.52 11/19/2015 18:17:12 -81.04, 32.73 76.50 3.08 12
6 11/19/2015</
